Location: Orange
(33.2833°S, 149.1000°E)
Time: 19:01:23
(UTC+10:00)

Envisat - Visible Passes

Search period start: 15 May 2021 00:00
Search period end: 25 May 2021 00:00
Orbit: 764 x 766 km, 98.1° (Epoch: 14 May)

Date Brightness Start Highest point End Pass type
(mag) Time Alt. Az. Time Alt. Az. Time Alt. Az.
15 May 5.7 03:30:37 10° E 03:33:11 14° ESE 03:35:04 12° SE visible
15 May 3.0 05:06:37 10° N 05:11:38 58° W 05:15:15 19° SSW visible
15 May 5.9 19:01:24 10° SW 19:03:12 12° WSW 19:05:01 10° W visible
16 May 3.5 04:29:52 10° NNE 04:34:51 58° ESE 04:37:45 25° S visible
16 May 4.7 06:11:57 10° WNW 06:14:10 13° W 06:16:24 10° WSW visible
16 May 5.1 18:22:31 10° SSW 18:26:48 27° WSW 18:31:03 10° NW visible
17 May 5.0 03:54:10 10° ENE 03:58:16 25° ESE 04:00:16 20° SE visible
17 May 3.7 05:32:35 10° NNW 05:37:04 31° W 05:40:27 16° SW visible
17 May 3.5 17:45:06 10° S 17:50:11 65° WSW 17:55:13 10° NNW visible
18 May 5.9 03:20:52 10° ESE 03:21:52 11° ESE 03:22:48 10° SE visible
18 May 2.8 04:55:05 10° N 05:00:09 77° WNW 05:02:58 28° SSW visible
18 May 5.7 18:48:58 10° SSW 18:51:54 15° WSW 18:54:49 10° W visible
19 May 4.0 04:18:37 10° NE 04:23:27 44° ESE 04:25:31 29° SSE visible
19 May 4.5 05:59:21 10° NW 06:02:37 17° W 06:05:42 11° SW visible
19 May 4.6 18:10:48 10° S 18:15:26 35° WSW 18:20:01 10° NW visible
20 May 5.3 03:43:20 10° ENE 03:46:55 20° ESE 03:48:05 18° SE visible
20 May 3.4 05:20:48 10° NNW 05:25:34 41° W 05:28:16 23° SW visible
20 May 3.1 17:33:36 10° S 17:38:46 84° WSW 17:43:51 10° NNW visible
21 May 3.0 04:43:37 10° NNE 04:48:43 83° ESE 04:50:49 37° S visible
21 May 5.5 18:36:56 10° SSW 18:40:34 20° WSW 18:44:11 10° WNW visible
22 May 4.4 04:07:29 10° NE 04:12:03 34° ESE 04:13:24 30° SE visible
22 May 4.2 05:47:10 10° NW 05:51:04 22° W 05:53:35 16° WSW visible
22 May 4.2 17:59:09 10° S 18:04:03 45° WSW 18:08:52 10° NW visible
23 May 5.6 03:32:43 10° E 03:35:35 15° ESE 03:35:59 15° ESE visible
23 May 3.1 05:09:07 10° N 05:14:05 53° W 05:16:10 32° SW visible
23 May 6.0 19:04:26 10° SW 19:05:36 11° WSW 19:06:46 10° WSW visible
24 May 3.3 04:32:16 10° NNE 04:37:17 64° ESE 04:38:45 44° SSE visible
24 May 4.8 06:14:58 10° WNW 06:16:40 11° W 06:18:21 10° WSW visible
24 May 5.2 18:25:04 10° SSW 18:29:13 25° WSW 18:33:20 10° WNW visible
